| time (UTC) | temp C | wind direction | speed KPH | gust KPH | rain 1hr cm | rain 24hr cm | rain mn cm | humidity % | barometer mb |
| 20260505041136 | 21 | 225 | 8.0 | 11.3 | 0.00 | 0.00 | 0.00 | 74 | 1003.1 |
| 20260505040116 | 21 | 203 | 6.4 | 14.5 | 0.00 | 0.00 | 0.00 | 74 | 1003.2 |
| 20260505035129 | 21 | 225 | 6.4 | 8.0 | 0.00 | 0.00 | 0.00 | 74 | 1003.3 |
| 20260505035011 | 21 | 0.0 | 0.0 | 0.00 | 0.00 | 0.00 | 73 | 1003.3 | |
| 20260505034536 | 21 | 180 | 11.3 | 14.5 | 0.00 | 0.00 | 0.00 | 73 | 1003.2 |
| 20260505033516 | 21 | 203 | 9.7 | 12.9 | 0.00 | 0.00 | 0.00 | 74 | 1003.3 |
| 20260505032516 | 21 | 203 | 8.0 | 11.3 | 0.00 | 0.00 | 0.00 | 74 | 1003.2 |
| 20260505031516 | 21 | 225 | 8.0 | 14.5 | 0.00 | 0.00 | 0.00 | 75 | 1003.1 |
| 20260505030516 | 21 | 225 | 8.0 | 11.3 | 0.00 | 0.00 | 0.00 | 75 | 1003.0 |
| 20260505025516 | 21 | 203 | 3.2 | 4.8 | 0.00 | 0.00 | 0.00 | 75 | 1002.9 |
| 20260505024516 | 21 | 203 | 4.8 | 8.0 | 0.00 | 0.00 | 0.00 | 74 | 1002.7 |
| 20260505023516 | 22 | 203 | 3.2 | 4.8 | 0.00 | 0.00 | 0.00 | 73 | 1002.6 |
| 20260505022536 | 22 | 203 | 3.2 | 8.0 | 0.00 | 0.00 | 0.00 | 72 | 1002.5 |
| 20260505021516 | 22 | 203 | 6.4 | 11.3 | 0.00 | 0.00 | 0.00 | 71 | 1002.3 |
| 20260505020517 | 22 | 203 | 4.8 | 6.4 | 0.00 | 0.00 | 0.00 | 70 | 1002.1 |
| 20260505015516 | 22 | 0.0 | 1.6 | 0.00 | 0.00 | 0.00 | 69 | 1002.0 | |
| 20260505014516 | 22 | 225 | 1.6 | 3.2 | 0.00 | 0.00 | 0.00 | 69 | 1001.7 |
| 20260505013516 | 22 | 0.0 | 0.0 | 0.00 | 0.00 | 0.00 | 68 | 1001.6 | |
| 20260505012516 | 22 | 0.0 | 0.0 | 0.00 | 0.00 | 0.00 | 67 | 1001.5 | |
| 20260505011517 | 23 | 0.0 | 0.0 | 0.00 | 0.00 | 0.00 | 65 | 1001.3 | |
| 20260505010556 | 23 | 0.0 | 0.0 | 0.00 | 0.00 | 0.00 | 63 | 1001.2 | |
| 20260505005517 | 25 | 0.0 | 0.0 | 0.00 | 0.00 | 0.00 | 61 | 1001.1 | |
| 20260505004536 | 25 | 0.0 | 3.2 | 0.00 | 0.00 | 0.00 | 59 | 1001.0 | |
| 20260505003516 | 25 | 0.0 | 1.6 | 0.00 | 0.00 | 0.00 | 59 | 1000.9 | |
| 20260505002637 | 25 | 225 | 3.2 | 3.2 | 0.00 | 0.00 | 0.00 | 59 | 1000.8 |
| 20260505002317 | 25 | 0.0 | 1.6 | 0.00 | 0.00 | 0.00 | 60 | 1000.9 | |
| 20260505001316 | 25 | 225 | 4.8 | 9.7 | 0.00 | 0.00 | 0.00 | 58 | 1000.9 |
| 20260505000336 | 26 | 0.0 | 1.6 | 0.00 | 0.00 | 0.00 | 58 | 1001.0 | |
| 20260504235316 | 26 | 248 | 1.6 | 4.8 | 0.00 | 0.00 | 0.00 | 56 | 1000.9 |
| 20260504234317 | 27 | 225 | 3.2 | 6.4 | 0.00 | 0.00 | 0.00 | 55 | 1000.9 |
| 20260504233316 | 27 | 248 | 6.4 | 9.7 | 0.00 | 0.00 | 0.00 | 54 | 1000.9 |
| 20260504232316 | 27 | 225 | 4.8 | 6.4 | 0.00 | 0.00 | 0.00 | 54 | 1001.0 |
| 20260504231316 | 28 | 225 | 4.8 | 11.3 | 0.00 | 0.00 | 0.00 | 54 | 1001.2 |
| 20260504230317 | 27 | 203 | 9.7 | 17.7 | 0.00 | 0.00 | 0.00 | 54 | 1001.1 |
| 20260504225321 | 27 | 270 | 3.2 | 8.0 | 0.00 | 0.00 | 0.00 | 55 | 1001.2 |
| 20260504224322 | 27 | 315 | 3.2 | 4.8 | 0.00 | 0.00 | 0.00 | 55 | 1001.1 |
| 20260504223320 | 27 | 225 | 1.6 | 3.2 | 0.00 | 0.00 | 0.00 | 56 | 1001.1 |
| 20260504222320 | 27 | 293 | 4.8 | 8.0 | 0.00 | 0.00 | 0.00 | 55 | 1001.1 |
| 20260504221320 | 26 | 293 | 8.0 | 14.5 | 0.00 | 0.00 | 0.00 | 55 | 1001.2 |
| 20260504220345 | 27 | 293 | 6.4 | 8.0 | 0.00 | 0.00 | 0.00 | 54 | 1001.3 |
| 20260504215320 | 27 | 293 | 4.8 | 12.9 | 0.00 | 0.00 | 0.00 | 54 | 1001.3 |
| 20260504214406 | 27 | 248 | 3.2 | 3.2 | 0.00 | 0.00 | 0.00 | 52 | 1001.4 |
| 20260504213343 | 27 | 225 | 8.0 | 17.7 | 0.00 | 0.00 | 0.00 | 52 | 1001.4 |
| 20260504212320 | 27 | 225 | 9.7 | 16.1 | 0.00 | 0.00 | 0.00 | 52 | 1001.5 |
| 20260504211330 | 27 | 0.0 | 0.0 | 0.00 | 0.00 | 0.00 | 50 | 1001.5 | |
| 20260504211215 | 27 | 0.0 | 0.0 | 0.00 | 0.00 | 0.00 | 50 | 1001.6 | |
| 20260504210948 | 27 | 0.0 | 0.0 | 0.00 | 0.00 | 0.00 | 50 | 1001.6 | |
| 20260504210815 | 27 | 270 | 8.0 | 11.3 | 0.00 | 0.00 | 0.00 | 50 | 1001.5 |
| 20260504210316 | 27 | 270 | 8.0 | 16.1 | 0.00 | 0.00 | 0.00 | 49 | 1001.5 |
| 20260504205316 | 27 | 225 | 4.8 | 9.7 | 0.00 | 0.00 | 0.00 | 56 | 1001.6 |
| 20260504204316 | 27 | 293 | 8.0 | 14.5 | 0.00 | 0.00 | 0.00 | 53 | 1001.6 |
| 20260504203316 | 27 | 293 | 6.4 | 8.0 | 0.00 | 0.00 | 0.00 | 52 | 1001.7 |
| 20260504202316 | 27 | 293 | 6.4 | 14.5 | 0.00 | 0.00 | 0.00 | 53 | 1001.8 |
| 20260504201316 | 27 | 293 | 6.4 | 9.7 | 0.00 | 0.00 | 0.00 | 52 | 1001.8 |
| 20260504200347 | 27 | 0.0 | 0.0 | 0.00 | 0.00 | 0.00 | 51 | 1001.9 | |
| 20260504195716 | 27 | 270 | 8.0 | 9.7 | 0.00 | 0.00 | 0.00 | 53 | 1001.9 |
| 20260504194736 | 27 | 203 | 8.0 | 12.9 | 0.00 | 0.00 | 0.00 | 54 | 1002.0 |
| 20260504193716 | 27 | 248 | 9.7 | 16.1 | 0.00 | 0.00 | 0.00 | 52 | 1002.1 |
| 20260504192717 | 27 | 203 | 8.0 | 14.5 | 0.00 | 0.00 | 0.00 | 52 | 1002.1 |
| 20260504191716 | 27 | 293 | 6.4 | 11.3 | 0.00 | 0.00 | 0.00 | 57 | 1002.0 |
| 20260504190736 | 26 | 293 | 6.4 | 11.3 | 0.00 | 0.00 | 0.00 | 56 | 1001.9 |
| 20260504185716 | 26 | 225 | 4.8 | 12.9 | 0.00 | 0.00 | 0.00 | 55 | 1002.1 |
| 20260504184716 | 26 | 270 | 8.0 | 11.3 | 0.00 | 0.00 | 0.00 | 57 | 1002.1 |
| 20260504183716 | 26 | 270 | 6.4 | 14.5 | 0.00 | 0.00 | 0.00 | 58 | 1002.3 |
| 20260504182716 | 25 | 225 | 6.4 | 17.7 | 0.00 | 0.00 | 0.00 | 57 | 1002.4 |
| 20260504181716 | 25 | 270 | 8.0 | 14.5 | 0.00 | 0.00 | 0.00 | 58 | 1002.4 |
| 20260504180717 | 25 | 293 | 8.0 | 12.9 | 0.00 | 0.00 | 0.00 | 57 | 1002.5 |
| 20260504175756 | 25 | 0.0 | 0.0 | 0.00 | 0.00 | 0.00 | 58 | 1002.5 | |
| 20260504174816 | 25 | 248 | 4.8 | 8.0 | 0.00 | 0.00 | 0.00 | 58 | 1002.7 |
| 20260504173816 | 24 | 225 | 3.2 | 9.7 | 0.00 | 0.00 | 0.00 | 59 | 1002.9 |
| 20260504172816 | 24 | 225 | 11.3 | 25.7 | 0.00 | 0.00 | 0.00 | 57 | 1002.9 |
| 20260504171816 | 24 | 203 | 9.7 | 24.1 | 0.00 | 0.00 | 0.00 | 56 | 1002.9 |
| 20260504170816 | 24 | 270 | 9.7 | 14.5 | 0.00 | 0.00 | 0.00 | 57 | 1002.9 |
| 20260504150217 | 21 | 270 | 8.0 | 16.1 | 0.00 | 0.00 | 0.00 | 61 | 1003.4 |
| 20260504140816 | 20 | 270 | 3.2 | 6.4 | 0.00 | 0.00 | 0.00 | 63 | 1003.6 |
| 20260504100137 | 18 | 225 | 6.4 | 11.3 | 0.00 | 0.00 | 0.00 | 61 | 1004.7 |
| 20260504090117 | 17 | 225 | 6.4 | 17.7 | 0.00 | 0.00 | 0.00 | 65 | 1004.9 |
| 20260504081717 | 16 | 225 | 6.4 | 9.7 | 0.00 | 0.00 | 0.00 | 68 | 1005.2 |
| 20260504080717 | 16 | 203 | 4.8 | 6.4 | 0.00 | 0.00 | 0.00 | 68 | 1005.4 |
| 20260504060137 | 16 | 113 | 1.6 | 3.2 | 0.00 | 0.00 | 0.00 | 77 | 1007.1 |
| 20260504050317 | 17 | 0 | 3.2 | 3.2 | 0.00 | 0.00 | 0.00 | 75 | 1007.3 |
| 20260504045408 | 17 | 0.0 | 0.0 | 0.00 | 0.00 | 0.00 | 73 | 1007.2 | |
| 20260504045216 | 17 | 135 | 1.6 | 1.6 | 0.00 | 0.00 | 0.00 | 73 | 1007.1 |
| 20260504044216 | 18 | 0.0 | 0.0 | 0.00 | 0.00 | 0.00 | 71 | 1007.1 | |
| 20260504043216 | 18 | 0.0 | 1.6 | 0.00 | 0.00 | 0.00 | 71 | 1007.0 |